Regional Weather Roundup
Issued by NWS Jackson, KY

Home | Current Version | Previous Version | Text Only | Print | Product List | Glossary On
Versions: 1 2 3 4 5 6 7 8 9 10 11 12 13 14 15 16 17 18 19 20 21 22 23 24 25 26 27 28 29 30 31 32 33 34 35 36 37 38 39 40 41 42 43 44 45 46 47 48 49 50
000
ASUS43 KJKL 310619
RWRJKL

EAST KENTUCKY HOURLY WEATHER ROUNDUP
NATIONAL WEATHER SERVICE JACKSON KY
100 AM EST SAT JAN 31 2015

NOTE: "FAIR" INDICATES FEW OR NO CLOUDS BELOW 12,000 FEET WITH
NO SIGNIFICANT WEATHER AND/OR OBSTRUCTIONS TO VISIBILITY.

* THESE REPORTS ARE NOT UNDER NWS QUALITY CONTROL AND MAY NOT
  REPORT WEATHER SUCH AS PRECIPITATION AND FOG.

KYZ079-080-083-085-087-088-110-112-115-119-120-310700
...EASTERN KENTUCKY...

CITY           SKY/WX    TMP DP  RH WIND       PRES   REMARKS
JACKSON        CLEAR     23  11  60 CALM      30.39F
6HR MIN TEMP:  22; 6HR MAX TEMP:  28;

LONDON         CLEAR     23  15  71 CALM      30.41F
6HR MIN TEMP:  23; 6HR MAX TEMP:  32;

SOMERSET*      CLEAR     23  19  86 CALM      30.44S
MONTICELLO*    CLEAR     17  14  88 CALM      30.45F
6HR MIN TEMP:  16; 6HR MAX TEMP:  30;

MIDDLESBORO*   CLEAR     21  19  91 CALM      30.41F
6HR MIN TEMP:  21; 6HR MAX TEMP:  32;

HARLAN APT*    CLEAR     25  18  74 CALM      30.39S
HAZARD APT*    CLEAR     23  18  80 CALM      30.40F
BLACK MTN*       N/A     12  12 100 NW5         N/A  WCI   4
PIKEVILLE APT* CLEAR     21  12  68 CALM      30.38F
BIG SANDY*     CLEAR     20  14  77 CALM      30.41S
6HR MIN TEMP:  20; 6HR MAX TEMP:  28;

MOREHEAD APT*  CLEAR     21  12  68 SE3       30.43F
ASHLAND*       CLEAR     19  16  86 CALM      30.44S
$$

KYZ035-036-041-042-044-050-067-078-099-310700
...CENTRAL KENTUCKY...

CITY           SKY/WX    TMP DP  RH WIND       PRES   REMARKS
MT STERLING*   CLEAR     19  18  93 CALM      30.43F
FLEMING/MASON* CLEAR     19  13  77 SE3       30.43F
DANVILLE*      CLEAR     21  18  86 CALM      30.43S
RICHMOND*      CLEAR     23  14  68 SE3       30.42S
LEXINGTON      CLEAR     23  14  68 SE5       30.41F WCI  17
6HR MIN TEMP:  22; 6HR MAX TEMP:  28;

FRANKFORT      CLEAR     19  14  81 CALM      30.41F
6HR MIN TEMP:  18; 6HR MAX TEMP:  29;

$$

KYZ091>093-OHZ055-061-077-WVZ005-015-034-035-042-310700
...SOUTHERN OHIO/WEST VIRGINIA...

CITY           SKY/WX    TMP DP  RH WIND       PRES   REMARKS
COVINGTON      CLEAR     22  14  71 CALM      30.41F
COLUMBUS       PTCLDY    14   9  80 SE3       30.42F
DAYTON         CLEAR     20  12  71 S5        30.40F WCI  13
WILMINGTON     CLEAR     16  12  84 CALM      30.40F
HUNTINGTON     CLEAR     18  14  84 E3        30.42F
CHARLESTON     CLEAR     17  12  80 S5        30.42F WCI  10
PINEVILLE*     CLEAR     16  15  95 MISG      30.41S
BECKLEY        CLEAR     12   7  80 NW6       30.30S WCI   3
BLUEFIELD      CLEAR     17   8  67 W7        30.27S WCI   8
$$

VAZ002-007-008-TNZ017-027-036-066-071-310700
...SOUTHWEST VIRGINIA/EAST TENNESSEE...

CITY           SKY/WX    TMP DP  RH WIND       PRES   REMARKS
WISE*          CLEAR     18  10  73 W3        30.32S
JONESVILLE*    CLEAR     21  16  79 CALM      30.41S
ABINGDON*      CLEAR     24  12  60 W5        30.33F WCI  18
BRISTOL        CLEAR     21  15  78 CALM      30.37S
KNOXVILLE      CLEAR     28  17  63 NE7       30.40S WCI  21
OAK RIDGE      CLEAR     30  17  58 E3        30.41F
CROSSVILLE     CLEAR     26  17  68 N6        30.36F WCI  19
NASHVILLE      PTCLDY    32  21  64 N5        30.42F WCI  27
$$

...KEY TO REMARKS...
VSB - VISIBILITY IN MILES
WCI - WIND CHILL INDEX
HX  - HEAT INDEX

$$


USA.gov is the U.S. government's official web portal to all federal, state and local government web resources and services.